W4CPD Weather Reports


time (UTC)temp
C
wind
direction
speed
KPH
gust
KPH
rain 1hr
cm
rain 24hr
cm
rain mn
cm
humidity
%
barometer
mb
20260510225514 27 217 8.0 19.3 0.00 0.53 0.36 74 1016.7
20260510225016 27 179 9.7 17.7 0.00 0.53 0.36 73 1016.8
20260510224536 27 186 6.4 20.9 0.00 0.53 0.36 74 1016.7
20260510224014 27 165 6.4 20.9 0.00 0.53 0.36 74 1016.7
20260510223520 27 155 8.0 17.7 0.00 0.53 0.36 73 1016.8
20260510223029 27 188 9.7 17.7 0.00 0.53 0.36 72 1016.7
20260510222518 27 161 8.0 16.1 0.00 0.53 0.36 72 1016.8
20260510222012 28 175 6.4 19.3 0.00 0.53 0.36 72 1016.8
20260510221529 28 174 8.0 20.9 0.00 0.53 0.36 70 1016.7
20260510221012 28 148 9.7 20.9 0.00 0.53 0.36 68 1016.5
20260510220516 28 189 8.0 19.3 0.00 0.53 0.36 68 1016.4
20260510220030 28 207 8.0 22.5 0.00 0.53 0.36 68 1016.5
20260510215515 29 165 8.0 22.5 0.03 0.56 0.36 67 1016.5
20260510215014 29 190 9.7 22.5 0.03 0.56 0.36 67 1016.5
20260510214528 30 139 8.0 19.3 0.03 0.56 0.36 67 1016.4
20260510214015 30 170 6.4 24.1 0.03 0.56 0.36 67 1016.4
20260510213514 30 165 4.8 24.1 0.03 0.56 0.36 68 1016.5
20260510213030 30 185 8.0 19.3 0.03 0.56 0.36 68 1016.4
20260510212514 30 162 9.7 19.3 0.03 0.56 0.36 67 1016.4
20260510212015 30 176 8.0 17.7 0.03 0.56 0.36 68 1016.4
20260510211533 30 161 8.0 16.1 0.03 0.56 0.36 68 1016.4
20260510211016 30 176 6.4 14.5 0.03 0.56 0.36 68 1016.5
20260510210515 30 173 8.0 16.1 0.03 0.56 0.36 68 1016.4
20260510210028 30 178 6.4 16.1 0.00 0.53 0.33 68 1016.4
20260510205515 30 175 9.7 16.1 0.00 0.56 0.33 68 1016.4
20260510205015 30 189 8.0 16.1 0.00 0.56 0.33 68 1016.4
20260510204528 30 169 6.4 16.1 0.00 0.56 0.33 66 1016.4
20260510204015 30 188 6.4 16.1 0.03 0.56 0.33 67 1016.5
20260510203514 30 168 3.2 11.3 0.03 0.56 0.33 68 1016.4
20260510203033 30 227 3.2 19.3 0.03 0.56 0.33 71 1016.4
20260510202513 30 182 9.7 19.3 0.03 0.56 0.33 67 1016.4
20260510202016 30 181 4.8 16.1 0.03 0.56 0.33 69 1016.3
20260510201531 30 177 8.0 16.1 0.03 0.56 0.33 69 1016.5
20260510201014 30 278 6.4 14.5 0.03 0.56 0.33 69 1016.5
20260510200516 30 180 4.8 14.5 0.03 0.56 0.33 72 1016.5
20260510200028 30 0 4.8 17.7 0.03 0.56 0.33 70 1016.4
20260510195512 30 190 8.0 17.7 0.03 0.58 0.33 72 1016.5
20260510195013 29 195 4.8 11.3 0.03 0.58 0.33 73 1016.3
20260510194537 29 192 3.2 11.3 0.03 0.58 0.33 74 1016.4
20260510194012 29 161 6.4 11.3 0.00 0.56 0.30 71 1016.4
20260510193515 29 204 3.2 9.7 0.00 0.56 0.30 73 1016.6
20260510193033 28 248 1.6 9.7 0.03 0.56 0.30 71 1016.6
20260510192516 28 0 3.2 9.7 0.03 0.56 0.30 72 1016.6
20260510192014 28 193 0.0 6.4 0.03 0.56 0.30 72 1016.6
20260510191531 28 273 0.0 6.4 0.03 0.56 0.30 73 1016.6
20260510191014 28 0 1.6 6.4 0.03 0.56 0.30 73 1016.7
20260510190514 28 273 0.0 6.4 0.03 0.56 0.30 72 1016.8
20260510190045 28 273 0.0 6.4 0.03 0.56 0.30 74 1016.9
20260510185516 27 272 1.6 8.0 0.03 0.58 0.30 75 1017.1
20260510185015 27 272 3.2 9.7 0.03 0.58 0.30 74 1017.1
20260510184532 27 0 3.2 9.7 0.03 0.58 0.30 74 1017.1
20260510184013 27 302 1.6 8.0 0.03 0.58 0.30 75 1017.1
20260510183520 27 336 1.6 8.0 0.03 0.58 0.30 76 1017.2
20260510183030 27 336 1.6 8.0 0.00 0.56 0.28 73 1017.2
20260510182516 27 342 3.2 11.3 0.00 0.56 0.28 74 1017.2
20260510182012 27 248 4.8 12.9 0.00 0.56 0.28 74 1017.2
20260510181528 27 302 1.6 12.9 0.03 0.56 0.28 76 1017.2
20260510181016 27 346 4.8 9.7 0.03 0.56 0.28 76 1017.2
20260510180515 27 191 0.0 4.8 0.03 0.56 0.28 78 1017.2
20260510180030 27 0 0.0 4.8 0.03 0.56 0.28 73 1017.3
20260510175516 27 191 1.6 4.8 0.03 0.61 0.28 75 1017.2
20260510175015 27 303 1.6 4.8 0.03 0.61 0.28 75 1017.2
20260510174531 27 306 1.6 14.5 0.03 0.61 0.28 75 1017.2
20260510174015 27 306 6.4 14.5 0.03 0.61 0.28 76 1017.4
20260510173516 27 336 1.6 9.7 0.03 0.61 0.28 77 1017.4
20260510173029 27 338 4.8 9.7 0.03 0.61 0.28 77 1017.5
20260510172513 27 296 1.6 8.0 0.03 0.61 0.28 77 1017.5
20260510172014 27 44 3.2 12.9 0.00 0.58 0.25 79 1017.5
20260510171531 27 5 4.8 12.9 0.00 0.58 0.25 75 1017.7
20260510171014 27 255 1.6 6.4 0.03 0.58 0.25 77 1017.8
20260510170523 27 254 3.2 6.4 0.03 0.58 0.25 78 1017.9
20260510170034 26 254 3.2 8.0 0.03 0.58 0.25 78 1017.9
20260510165515 26 254 1.6 8.0 0.03 0.58 0.25 80 1018.0
20260510165016 26 309 3.2 12.9 0.03 0.58 0.25 78 1017.9
20260510164534 26 305 3.2 12.9 0.03 0.58 0.25 79 1018.0
20260510164015 26 321 1.6 9.7 0.03 0.58 0.25 81 1017.9
20260510163514 26 169 0.0 9.7 0.03 0.58 0.25 80 1017.9
20260510163039 26 169 1.6 9.7 0.03 0.58 0.25 81 1017.9
20260510162513 25 133 1.6 8.0 0.03 0.58 0.25 82 1017.8
20260510162015 25 130 1.6 8.0 0.03 0.58 0.25 82 1017.8
20260510161535 25 127 1.6 8.0 0.03 0.58 0.25 87 1017.9
20260510161013 25 166 1.6 6.4 0.00 0.56 0.23 86 1018.0
20260510160513 24 180 1.6 6.4 0.00 0.56 0.23 85 1018.0
20260510160031 24 0 1.6 6.4 0.03 0.56 0.23 87 1018.0
20260510155513 23 180 3.2 8.0 0.03 0.58 0.23 87 1017.9
20260510155017 23 181 1.6 8.0 0.03 0.58 0.23 88 1017.8
20260510154533 23 246 1.6 6.4 0.03 0.58 0.23 88 1017.9
20260510154014 23 0 1.6 6.4 0.03 0.58 0.23 90 1017.9
20260510153515 23 140 1.6 6.4 0.03 0.58 0.23 91 1017.9
20260510153052 23 0 0.0 6.4 0.03 0.58 0.23 92 1018.0
20260510152513 22 9 1.6 6.4 0.03 0.58 0.23 91 1018.0
20260510152017 22 15 0.0 4.8 0.03 0.58 0.23 93 1018.0
20260510151534 22 0 0.0 8.0 0.03 0.58 0.23 94 1018.0
20260510151016 22 16 4.8 8.0 0.03 0.58 0.23 94 1018.0
20260510150514 22 19 1.6 6.4 0.03 0.58 0.23 95 1017.9
20260510150040 21 49 1.6 4.8 0.00 0.56 0.20 97 1018.1
20260510145515 21 0 0.0 4.8 0.00 0.58 0.20 97 1018.1
20260510145016 21 36 1.6 6.4 0.00 0.58 0.20 97 1018.2
20260510144541 21 333 3.2 6.4 0.03 0.58 0.20 98 1018.2
20260510144016 21 337 1.6 6.4 0.03 0.58 0.20 98 1018.2
20260510143517 21 5 1.6 4.8 0.03 0.58 0.20 99 1018.3
20260510143035 21 37 0.0 4.8 0.03 0.58 0.20 99 1018.3
20260510142518 21 0 1.6 4.8 0.03 0.58 0.20 99 1018.3
20260510142014 20 32 0.0 4.8 0.03 0.58 0.20 99 1018.2
20260510141530 20 30 1.6 6.4 0.03 0.58 0.20 100 1018.1
20260510141014 20 0 1.6 6.4 0.03 0.58 0.20 100 1018.0
20260510140514 20 30 3.2 6.4 0.03 0.58 0.20 100 1018.0
20260510140034 20 0 0.0 6.4 0.03 0.58 0.20 100 1018.0
20260510135514 20 32 1.6 6.4 0.03 0.58 0.20 100 1018.0
20260510135015 20 30 3.2 6.4 0.03 0.58 0.20 100 1018.0
20260510134533 20 0 1.6 4.8 0.00 0.56 0.18 100 1017.9
20260510134014 20 0 1.6 4.8 0.00 0.56 0.18 100 1017.8
20260510133515 20 99 0.0 4.8 0.00 0.56 0.18 100 1017.7
20260510133030 20 0 0.0 6.4 0.00 0.56 0.18 100 1017.7
20260510132522 20 0 1.6 8.0 0.00 0.56 0.18 100 1017.8
20260510132018 20 76 1.6 8.0 0.00 0.56 0.18 100 1017.8
20260510131533 19 137 0.0 6.4 0.03 0.56 0.18 100 1017.7
20260510131027 19 0 3.2 6.4 0.03 0.56 0.18 100 1017.7
20260510130513 19 69 0.0 8.0 0.03 0.56 0.18 100 1017.7
20260510130028 18 71 0.0 8.0 0.03 0.56 0.18 100 1017.7
20260510125514 18 63 1.6 8.0 0.03 0.58 0.18 100 1017.6
20260510125015 18 60 1.6 8.0 0.03 0.58 0.18 100 1017.6
20260510124533 18 60 1.6 6.4 0.03 0.58 0.18 100 1017.6
20260510124015 18 79 1.6 6.4 0.03 0.58 0.18 100 1017.5
20260510123513 18 0 0.0 6.4 0.03 0.58 0.18 100 1017.4
20260510123033 18 0 1.6 6.4 0.03 0.58 0.18 100 1017.4
20260510122514 18 0 0.0 4.8 0.03 0.58 0.18 100 1017.3
20260510122018 18 76 1.6 4.8 0.00 0.56 0.15 100 1017.2
20260510121528 18 76 1.6 4.8 0.00 0.56 0.15 100 1016.9
20260510121016 18 0 0.0 3.2 0.00 0.56 0.15 100 1017.0
20260510120514 18 0 0.0 3.2 0.00 0.56 0.15 100 1017.0
20260510120034 17 0 0.0 3.2 0.03 0.56 0.15 99 1016.8
20260510115512 17 0 1.6 3.2 0.03 0.58 0.15 99 1016.8
20260510115015 17 0 0.0 0.0 0.03 0.58 0.15 99 1016.7
20260510114530 17 0 0.0 0.0 0.03 0.58 0.15 99 1016.6
20260510114017 17 0 0.0 3.2 0.03 0.58 0.15 99 1016.6
20260510113513 17 0 0.0 3.2 0.03 0.58 0.15 99 1016.6
20260510113027 17 0 0.0 4.8 0.03 0.58 0.15 99 1016.4
20260510112517 17 0 1.6 6.4 0.03 0.58 0.15 99 1016.4
20260510112014 17 0 0.0 6.4 0.03 0.58 0.15 99 1016.4
20260510111534 17 76 3.2 6.4 0.03 0.58 0.15 99 1016.4
20260510111014 17 81 1.6 6.4 0.03 0.58 0.15 99 1016.3
20260510110514 17 81 1.6 6.4 0.03 0.58 0.15 99 1016.2
20260510110030 17 81 3.2 6.4 0.00 0.56 0.13 99 1016.1
20260510105514 17 82 3.2 6.4 0.03 0.58 0.13 99 1016.0
20260510105015 18 82 0.0 3.2 0.03 0.58 0.13 99 1015.9
20260510104529 18 0 0.0 1.6 0.03 0.58 0.13 99 1015.8
20260510104013 18 0 0.0 1.6 0.03 0.58 0.13 99 1015.8
20260510103515 18 0 0.0 0.0 0.03 0.58 0.13 99 1015.8
20260510103029 18 0 0.0 3.2 0.03 0.58 0.13 99 1015.8
20260510102513 18 0 0.0 3.2 0.03 0.58 0.13 99 1015.6
20260510102013 18 0 0.0 6.4 0.03 0.58 0.13 99 1015.6
20260510101530 18 0 1.6 6.4 0.03 0.58 0.13 99 1015.4
20260510101013 18 82 0.0 4.8 0.03 0.58 0.13 99 1015.3
20260510100518 18 82 1.6 4.8 0.03 0.58 0.13 99 1015.3
20260510100046 18 82 0.0 4.8 0.03 0.58 0.13 99 1015.4
20260510095515 18 0 0.0 4.8 0.00 0.56 0.10 99 1015.3
20260510095015 18 82 0.0 4.8 0.00 0.56 0.10 99 1015.2
20260510094546 18 82 1.6 4.8 0.00 0.56 0.10 99 1015.1
20260510094016 18 82 1.6 4.8 0.03 0.56 0.10 99 1014.9
20260510093513 18 0 0.0 6.4 0.03 0.56 0.10 99 1015.0
20260510093029 18 82 1.6 6.4 0.03 0.56 0.10 99 1014.9
20260510092514 18 82 0.0 4.8 0.03 0.56 0.10 99 1015.1
20260510092014 18 0 0.0 4.8 0.03 0.56 0.10 99 1015.1
20260510091530 18 82 1.6 4.8 0.03 0.56 0.10 99 1014.9
20260510091013 18 82 1.6 4.8 0.03 0.56 0.10 99 1014.7
20260510090515 18 82 0.0 3.2 0.03 0.56 0.10 99 1014.9
20260510090041 18 82 0.0 6.4 0.03 0.56 0.10 99 1014.6
20260510085516 18 82 3.2 6.4 0.03 0.58 0.10 99 1014.5
20260510085019 18 0 0.0 4.8 0.03 0.58 0.10 99 1014.4
20260510084532 18 88 1.6 4.8 0.03 0.58 0.10 99 1014.3
20260510084016 18 88 1.6 4.8 0.00 0.56 0.08 99 1014.3
20260510083514 18 0 0.0 0.0 0.03 0.56 0.08 99 1014.3
20260510083030 18 0 0.0 0.0 0.03 0.56 0.08 99 1014.2
20260510082514 18 0 0.0 0.0 0.03 0.56 0.08 99 1014.3
20260510082014 18 0 0.0 0.0 0.03 0.56 0.08 99 1014.2
20260510081543 18 0 0.0 1.6 0.03 0.56 0.08 99 1014.3
20260510081017 18 0 0.0 1.6 0.03 0.56 0.08 99 1014.1
20260510080516 18 0 0.0 1.6 0.03 0.56 0.08 99 1014.0
20260510080032 18 0 0.0 0.0 0.03 0.56 0.08 99 1014.0
20260510075517 18 0 0.0 1.6 0.03 0.58 0.08 99 1014.1
20260510075014 18 0 0.0 1.6 0.03 0.58 0.08 99 1014.0
20260510074534 18 88 0.0 1.6 0.03 0.58 0.08 99 1013.8
20260510074016 18 0 0.0 3.2 0.03 0.58 0.08 99 1013.9
20260510073516 18 0 0.0 3.2 0.00 0.56 0.05 99 1014.0
20260510073033 18 0 0.0 3.2 0.00 0.56 0.05 99 1013.8
20260510072515 18 88 0.0 3.2 0.03 0.56 0.05 99 1013.8
20260510072016 18 0 0.0 3.2 0.03 0.56 0.05 99 1013.7
20260510071537 19 0 0.0 0.0 0.03 0.56 0.05 99 1013.8
20260510071017 19 0 0.0 0.0 0.03 0.56 0.05 99 1013.8
20260510070515 19 0 0.0 0.0 0.03 0.56 0.05 99 1013.8
20260510070036 19 0 0.0 0.0 0.03 0.56 0.05 99 1013.9
20260510065514 19 0 0.0 0.0 0.03 0.58 0.05 99 1013.9
20260510065016 19 0 0.0 0.0 0.03 0.58 0.05 99 1014.1
20260510064528 19 0 0.0 0.0 0.03 0.58 0.05 99 1014.1
20260510064015 19 0 0.0 0.0 0.03 0.58 0.05 99 1014.1
20260510063516 19 0 0.0 0.0 0.03 0.58 0.05 99 1014.1
20260510063035 19 0 0.0 0.0 0.05 0.58 0.05 99 1014.3
20260510062513 18 0 0.0 0.0 0.03 0.56 0.03 99 1014.4
20260510062019 19 0 0.0 0.0 0.03 0.56 0.03 99 1014.5
20260510061532 19 0 0.0 0.0 0.03 0.56 0.03 99 1014.5
20260510061015 19 0 0.0 0.0 0.03 0.56 0.03 99 1014.4
20260510060515 19 0 0.0 0.0 0.03 0.56 0.03 99 1014.3
20260510060028 19 0 0.0 0.0 0.03 0.56 0.03 99 1014.4
20260510055513 19 0 0.0 0.0 0.03 0.56 0.03 99 1014.6
20260510055013 19 0 0.0 0.0 0.03 0.56 0.03 99 1014.6
20260510054530 19 0 0.0 0.0 0.03 0.56 0.03 99 1014.6
20260510054017 19 0 0.0 0.0 0.03 0.56 0.03 99 1014.4
20260510053513 19 0 0.0 0.0 0.00 0.53 0.00 99 1014.4
20260510053036 19 0 0.0 0.0 0.03 0.53 0.00 99 1014.3
20260510052513 20 0 0.0 0.0 0.03 0.53 0.00 99 1014.1
20260510052014 20 0 0.0 0.0 0.03 0.53 0.00 99 1014.1
20260510051531 19 0 0.0 0.0 0.03 0.53 0.00 99 1014.4
20260510051015 19 0 0.0 0.0 0.03 0.53 0.00 99 1014.4
20260510050516 19 0 0.0 0.0 0.03 0.53 0.00 99 1014.4
20260510050031 20 0 0.0 0.0 0.03 0.53 0.00 99 1014.4
20260510045516 20 0 0.0 0.0 0.03 0.56 0.53 99 1014.6
20260510045014 20 0 0.0 0.0 0.03 0.56 0.53 99 1014.9
20260510044534 20 0 0.0 0.0 0.03 0.56 0.53 99 1015.0
20260510044012 20 0 0.0 0.0 0.03 0.56 0.53 99 1015.0
20260510043515 20 0 0.0 0.0 0.03 0.56 0.53 99 1015.0
20260510043028 20 0 0.0 0.0 0.03 0.53 0.51 99 1015.1
20260510042515 20 0 0.0 0.0 0.03 0.53 0.51 99 1015.0
20260510042015 20 0 0.0 0.0 0.03 0.53 0.51 99 1015.1
20260510041528 20 0 0.0 3.2 0.03 0.53 0.51 99 1015.3
20260510041016 20 0 0.0 3.2 0.03 0.53 0.51 99 1015.2
20260510040515 20 0 0.0 3.2 0.03 0.53 0.51 99 1015.2
20260510040032 20 0 0.0 3.2 0.03 0.53 0.51 99 1015.3
20260510035514 20 0 0.0 3.2 0.03 0.56 0.51 99 1015.3
20260510035016 20 0 0.0 4.8 0.03 0.56 0.51 99 1015.4
20260510034531 20 69 0.0 4.8 0.03 0.56 0.51 99 1015.6
20260510034015 20 69 0.0 4.8 0.03 0.56 0.51 99 1015.5
20260510033513 20 0 0.0 4.8 0.03 0.56 0.51 99 1015.4
20260510033030 20 69 1.6 4.8 0.00 0.53 0.48 99 1015.3
20260510032513 20 0 0.0 0.0 0.03 0.53 0.48 99 1015.1
20260510032017 20 0 0.0 0.0 0.03 0.53 0.48 99 1014.7
20260510031528 20 0 0.0 4.8 0.03 0.53 0.48 99 1014.7
20260510031016 20 0 0.0 8.0 0.03 0.53 0.48 99 1014.7
20260510030515 20 0 0.0 8.0 0.03 0.53 0.48 99 1014.7
20260510030034 20 20 1.6 8.0 0.03 0.53 0.48 99 1014.7
20260510025515 20 97 0.0 6.4 0.03 0.56 0.48 99 1014.9
20260510025015 20 98 1.6 6.4 0.03 0.56 0.48 99 1014.8
20260510024530 20 100 0.0 4.8 0.03 0.56 0.48 99 1014.9
20260510024015 20 194 1.6 4.8 0.03 0.56 0.48 99 1015.0
20260510023513 20 0 0.0 0.0 0.03 0.56 0.48 99 1014.9
20260510023028 20 0 0.0 0.0 0.05 0.56 0.48 99 1014.8
20260510022514 20 0 0.0 0.0 0.03 0.53 0.46 99 1014.8
20260510022014 20 0 0.0 0.0 0.03 0.53 0.46 99 1014.7
20260510021533 20 0 0.0 0.0 0.03 0.53 0.46 99 1014.9
20260510021014 20 0 0.0 0.0 0.03 0.53 0.46 99 1014.7
20260510020520 20 0 0.0 0.0 0.03 0.53 0.46 99 1014.9
20260510020036 20 0 0.0 0.0 0.03 0.53 0.46 99 1014.9
20260510015515 20 0 0.0 0.0 0.03 0.56 0.46 99 1015.0
20260510015018 20 0 0.0 0.0 0.03 0.56 0.46 99 1014.9
20260510014531 20 0 0.0 0.0 0.03 0.56 0.46 99 1015.0
20260510014015 20 0 0.0 0.0 0.03 0.56 0.46 99 1015.1
20260510013515 20 0 0.0 0.0 0.03 0.56 0.46 99 1014.9
20260510013030 20 0 0.0 0.0 0.03 0.53 0.43 99 1014.8
20260510012513 20 0 0.0 0.0 0.03 0.53 0.43 99 1014.8
20260510012017 20 0 0.0 4.8 0.03 0.53 0.43 99 1014.9
20260510011539 20 0 0.0 4.8 0.03 0.53 0.43 99 1015.2
20260510011013 20 194 0.0 3.2 0.03 0.53 0.43 99 1015.1
20260510010514 20 194 0.0 3.2 0.03 0.53 0.43 99 1015.0
20260510010032 20 0 0.0 0.0 0.03 0.53 0.43 99 1014.7
20260510005515 20 0 0.0 0.0 0.03 0.56 0.43 99 1014.4
20260510005016 20 0 0.0 0.0 0.03 0.56 0.43 99 1014.1
20260510004532 20 0 0.0 1.6 0.03 0.56 0.43 99 1014.2
20260510004014 20 0 0.0 1.6 0.05 0.56 0.43 99 1014.3
20260510003514 20 0 0.0 1.6 0.05 0.56 0.43 99 1014.3
20260510003031 20 0 0.0 0.0 0.03 0.53 0.41 99 1014.1
20260510002514 20 0 0.0 0.0 0.03 0.53 0.41 99 1014.0
20260510002015 20 0 0.0 1.6 0.03 0.53 0.41 99 1013.9
20260510001528 20 0 0.0 1.6 0.03 0.53 0.41 99 1013.8
20260510001016 20 194 0.0 1.6 0.03 0.53 0.41 99 1013.7
20260510000514 20 0 0.0 3.2 0.03 0.53 0.41 99 1013.5
20260510000054 20 0 0.0 3.2 0.03 0.53 0.41 99 1013.5
20260509235518 20 0 0.0 3.2 0.03 0.56 0.41 99 1013.6
20260509235019 20 0 0.0 3.2 0.03 0.56 0.41 99 1013.8
20260509234547 20 194 0.0 3.2 0.03 0.53 0.38 99 1013.7
20260509234015 20 0 0.0 4.8 0.03 0.53 0.38 99 1013.8
20260509233517 20 0 0.0 4.8 0.03 0.53 0.38 99 1014.0
20260509233031 20 0 1.6 8.0 0.03 0.53 0.38 99 1014.0
20260509232516 20 194 1.6 9.7 0.03 0.53 0.38 99 1014.0
20260509232015 20 0 1.6 9.7 0.03 0.53 0.38 99 1013.9
20260509231528 20 156 1.6 8.0 0.03 0.53 0.38 99 1014.1
20260509231013 20 156 1.6 4.8 0.03 0.53 0.38 99 1014.0
20260509230513 20 0 0.0 3.2 0.03 0.53 0.38 99 1014.1
20260509230036 20 156 0.0 3.2 0.03 0.53 0.38 99 1013.9